9W2SHB-13 Weather Reports


time (UTC)temp
F
wind
direction
speed
knots
gust
knots
rain 1hr
in
rain 24hr
in
rain mn
in
humidity
%
barometer
mb
20260502221506 84 0 0.0 0.0 0.00 0.00 0.00 66 1028.0
20260502220007 84 0 0.0 0.0 0.00 0.00 0.00 65 1027.8
20260502214506 84 0 0.0 0.0 0.00 0.00 0.00 65 1027.7
20260502213007 85 0 0.0 0.0 0.00 0.00 0.00 65 1027.7
20260502211507 85 0 0.0 0.0 0.00 0.00 0.00 65 1027.6
20260502210006 85 0 0.0 0.0 0.00 0.00 0.00 65 1027.5
20260502204506 85 0 0.0 0.0 0.00 0.00 0.00 65 1027.4
20260502203007 85 0 0.0 0.0 0.00 0.00 0.00 65 1027.3
20260502201506 85 0 0.0 0.0 0.00 0.00 0.00 65 1027.2
20260502200006 85 0 0.0 0.0 0.00 0.00 0.00 65 1027.4
20260502194507 86 0 0.0 0.0 0.00 0.00 0.00 65 1027.5
20260502193007 86 0 0.0 0.0 0.00 0.00 0.00 64 1027.7
20260502191508 86 0 0.0 0.0 0.00 0.00 0.00 65 1027.7
20260502190006 86 0 0.0 0.0 0.00 0.00 0.00 65 1027.7
20260502184506 86 0 0.0 0.0 0.00 0.00 0.00 65 1027.8
20260502183006 86 0 0.0 0.0 0.00 0.00 0.00 65 1028.0
20260502181506 87 0 0.0 0.0 0.00 0.00 0.00 65 1028.4
20260502163007 87 0 0.0 0.0 0.00 0.00 0.00 65 1030.4
20260502161507 87 0 0.0 0.0 0.00 0.00 0.00 65 1030.5
20260502151507 87 0 0.0 0.0 0.00 0.00 0.00 66 1030.7
20260502123007 88 0 0.0 0.0 0.00 0.00 0.00 67 1027.6
20260502121507 88 0 0.0 0.0 0.00 0.00 0.00 68 1027.4
20260502114506 88 0 0.0 0.0 0.00 0.00 0.00 66 1027.0
20260502113007 88 0 0.0 0.0 0.00 0.00 0.00 66 1027.0
20260502111507 88 0 0.0 0.0 0.00 0.00 0.00 66 1026.6
20260502110007 88 0 0.0 0.0 0.00 0.00 0.00 65 1026.3
20260502104507 88 0 0.0 0.0 0.00 0.00 0.00 65 1026.1
20260502103006 88 0 0.0 0.0 0.00 0.00 0.00 65 1025.8
20260502101507 88 0 0.0 0.0 0.00 0.00 0.00 65 1025.9
20260502091507 88 0 0.0 0.0 0.00 0.00 0.00 64 1025.1
20260502071507 91 0 0.0 0.0 0.00 0.00 0.00 57 1025.4
20260502070007 91 0 0.0 0.0 0.00 0.00 0.00 56 1025.7
20260502064506 91 0 0.0 0.0 0.00 0.00 0.00 57 1026.1
20260502063007 91 0 0.0 0.0 0.00 0.00 0.00 57 1026.3
20260502061507 91 0 0.0 0.0 0.00 0.00 0.00 58 1026.7
20260502060007 91 0 0.0 0.0 0.00 0.00 0.00 58 1027.0
20260502054507 91 0 0.0 0.0 0.00 0.00 0.00 58 1027.1
20260502053007 91 0 0.0 0.0 0.00 0.00 0.00 57 1027.4
20260502051507 91 0 0.0 0.0 0.00 0.00 0.00 57 1027.7
20260502050007 91 0 0.0 0.0 0.00 0.00 0.00 57 1027.8
20260502044506 91 0 0.0 0.0 0.00 0.00 0.00 57 1028.3
20260502043006 90 0 0.0 0.0 0.00 0.00 0.00 58 1028.5
20260502041507 90 0 0.0 0.0 0.00 0.00 0.00 58 1028.9
20260502040007 90 0 0.0 0.0 0.00 0.00 0.00 60 1029.0
20260502034507 89 0 0.0 0.0 0.00 0.00 0.00 61 1029.1
20260502033007 89 0 0.0 0.0 0.00 0.00 0.00 62 1029.3
20260502031507 89 0 0.0 0.0 0.00 0.00 0.00 63 1029.5
20260502030007 88 0 0.0 0.0 0.00 0.00 0.00 63 1029.4
20260502024507 87 0 0.0 0.0 0.00 0.00 0.00 64 1029.5
20260502023007 87 0 0.0 0.0 0.00 0.00 0.00 64 1029.6
20260502021507 87 0 0.0 0.0 0.00 0.00 0.00 65 1029.7
20260502020007 86 0 0.0 0.0 0.00 0.00 0.00 65 1029.6
20260502014506 86 0 0.0 0.0 0.00 0.00 0.00 66 1029.7
20260502013006 86 0 0.0 0.0 0.00 0.00 0.00 66 1029.6
20260502011507 85 0 0.0 0.0 0.00 0.00 0.00 66 1029.6
20260502010006 85 0 0.0 0.0 0.00 0.00 0.00 66 1029.5
20260502004507 85 0 0.0 0.0 0.00 0.00 0.00 67 1029.2
20260502003006 85 0 0.0 0.0 0.00 0.00 0.00 67 1029.1
20260502001507 85 0 0.0 0.0 0.00 0.00 0.00 67 1028.8
20260502000006 85 0 0.0 0.0 0.00 0.00 0.00 67 1028.6
20260501234506 85 0 0.0 0.0 0.00 0.00 0.00 67 1028.4
20260501233006 85 0 0.0 0.0 0.00 0.00 0.00 66 1028.3
20260501231507 85 0 0.0 0.0 0.00 0.00 0.00 67 1028.2
20260501230007 85 0 0.0 0.0 0.00 0.00 0.00 67 1027.7
20260501224507 85 0 0.0 0.0 0.00 0.00 0.00 66 1027.7
20260501223007 85 0 0.0 0.0 0.00 0.00 0.00 66 1027.5